Location: Spring Creek
(38.2870°N, 100.2160°W)
Time: 21:24:46
(UTC+00:00)

Tiangong - Visible Passes

Search period start: 22 January 2022 00:00
Search period end: 01 February 2022 00:00
Orbit: 383 x 386 km, 41.5° (Epoch: 22 January)

Date Brightness Start Highest point End Pass type
(mag) Time Alt. Az. Time Alt. Az. Time Alt. Az.
25 Jan 3.7 01:50:36 10° SSW 01:51:24 15° SSW 01:51:24 15° SSW visible
26 Jan 3.4 00:52:02 10° S 00:53:39 13° SE 00:54:49 11° ESE visible
26 Jan 4.6 02:26:57 10° WSW 02:27:02 11° WSW 02:27:02 11° WSW visible
27 Jan 1.7 01:27:24 10° SW 01:30:21 41° SSE 01:30:21 41° SSE visible
28 Jan 2.7 00:28:07 10° SSW 00:30:44 24° SSE 00:33:20 10° E visible
28 Jan 3.2 02:04:12 10° WSW 02:05:48 27° W 02:05:48 27° W visible
29 Jan 1.1 01:04:23 10° WSW 01:07:33 71° SSE 01:08:57 29° E visible
30 Jan 1.6 01:41:26 10° W 01:44:15 52° NW 01:44:15 52° NW visible
31 Jan 1.1 00:41:28 10° WSW 00:44:38 75° NNW 00:47:17 14° ENE visible
31 Jan 4.0 02:18:36 10° WNW 02:19:30 17° WNW 02:19:30 17° WNW visible
